Weather in Aquiraz

Brazil     3°57′32″S   38°18′59″W
temp.,
°C
wind,
m/s
gust,
m/s
humid.,
%
clouds,
%
prec.,
mm/h
press.,
hPa
HPBL,
m
25 february, thu
thu2500:00+27ene588222 0.2 1011537
03:00+26e468523 0.5 1009494
06:00+25e458653 1.1 1011423
09:00+28e567629 1.9 1012818
12:00+29e567238 0.6 1011925
15:00+28ene567440 0.8 1008843
18:00+26ene468316 0.0 1009516
21:00+26ene478628 1.0 1011457
26 february, fri
fri2600:00+26ene468569 1.6 1010428
03:00+25ene458666 3.8 1008379
06:00+25ene348541 0.8 1010393
09:00+28ene457652 1.5 1011853
12:00+28ene567548 0.9 1010870
15:00+28ene567765 1.9 1007837
18:00+26ene468599 1.2 1008454
21:00+26ene578693 2.0 1010495
27 february, sat
sat2700:00+25ene358696 1.2 1010394
03:00+25e348686 2.4 1009369
06:00+25e348698 1.3 1010366
09:00+27e468068 3.2 1012752
12:00+27e568048 2.4 1010779
15:00+28e567440 2.8 1008881
18:00+26ene458266 0.0 1008456
21:00+26ene478280 0.0 1010531
28 february, sun
sun2800:00+26e4681100 0.7 1009585
03:00+26e468397 2.0 1008486
06:00+25ese468676 1.0 1009440
09:00+27se568244 2.9 1011679
12:00+29ese676724 1.9 1009930
15:00+28e676817 1.9 1006759
18:00+27ene577756 0.0 1006464
21:00+27ene688078 0.3 1008558
1 march, mon
mon100:00+27ene697882 0.2 1008655
03:00+26e588677 2.5 1007572
06:00+26e588429 1.4 1008628
09:00+28e787320 1.8 10101102
12:00+29e78685 0.1 10081172
15:00+28e67703 0.1 10061045
18:00+27ene57770 0.0 1006529
21:00+27ene688014 0.0 1009730